Location: Kawakawa
(35.3830°S, 174.0670°E)
Time: 09:52:07
(UTC+13:00)

ISS - Pass Details

Date: 01 February 2019
Orbit: 403 x 411 km, 51.6° (Epoch: 21 February)

Event Time Altitude Azimuth Distance (km) Brightness Sun altitude
Exits shadow 05:20:33 17° 247° (WSW) 1,134 -1.9 -15.3°
Maximum altitude 05:21:57 22° 212° (SSW) 971 -1.9 -15.1°
Drops below altitude 10° 05:24:38 10° 159° (SSE) 1,496 -0.1 -14.6°
Sets 05:27:04 0° 142° (SE) 2,361 1.5 -14.2°
